When you browse on this site, cookies collect data to enhance your experience and personalize the content and advertising you see.
Visit our Privacy Policy to learn more. By continuing to use the site, you agree to this use of cookies and data.
  • In United Kingdom
  • List of Countries
  • For 7 days
  • Water Temperature
  • Weather Map
  • Weather Widgets
  • user-avatar
    Login

    Hourly Weather Dortmund

    Today, 26 August, Monday

    Time Temperature Precipitation Wind Pressure Humidity
    00:00 +24°C° 0 mm 1 mps 756 mmHg 75%
    01:00 +23°C° 0 mm 1 mps 756 mmHg 76%
    02:00 +23°C° 0 mm 1 mps 756 mmHg 78%
    03:00 +22°C° 0 mm 1 mps 756 mmHg 79%
    04:00 +23°C° 0 mm 1 mps 756 mmHg 79%
    05:00 +23°C° 0 mm 1 mps 756 mmHg 78%
    06:00 +24°C° 0 mm 1 mps 756 mmHg 77%
    07:00 +26°C° 0 mm 1 mps 756 mmHg 69%
    08:00 +27°C° 0 mm 1 mps 756 mmHg 62%
    09:00 +29°C° 0 mm 1 mps 756 mmHg 54%
    10:00 +31°C° 0 mm 1 mps 755 mmHg 49%
    11:00 +32°C° 0 mm 2 mps 755 mmHg 43%
    12:00 +35°C° 0 mm 2 mps 755 mmHg 38%
    13:00 +35°C° 0 mm 2 mps 755 mmHg 37%
    14:00 +35°C° 0 mm 2 mps 754 mmHg 37%
    15:00 +35°C° 0 mm 2 mps 754 mmHg 36%
    16:00 +32°C° 0 mm 2 mps 754 mmHg 41%
    17:00 +31°C° 0 mm 2 mps 754 mmHg 47%
    18:00 +29°C° 0 mm 2 mps 754 mmHg 52%
    19:00 +28°C° 0 mm 2 mps 754 mmHg 55%
    20:00 +27°C° 0 mm 2 mps 754 mmHg 57%
    21:00 +26°C° 0 mm 2 mps 754 mmHg 60%
    22:00 +26°C° 0 mm 2 mps 754 mmHg 61%
    23:00 +25°C° 0 mm 2 mps 754 mmHg 62%

    Tomorrow, 27 August, Tuesday

    Time Temperature Precipitation Wind Pressure Humidity
    00:00 +25°C° 0 mm 1 mps 754 mmHg 63%
    01:00 +24°C° 0 mm 1 mps 754 mmHg 64%
    02:00 +24°C° 0 mm 1 mps 754 mmHg 66%
    03:00 +24°C° 0 mm 1 mps 754 mmHg 67%
    04:00 +24°C° 0 mm 1 mps 754 mmHg 67%
    05:00 +24°C° 0 mm 1 mps 753 mmHg 67%
    06:00 +24°C° 0 mm 1 mps 753 mmHg 66%
    07:00 +27°C° 0 mm 1 mps 753 mmHg 60%
    08:00 +29°C° 0 mm 1 mps 753 mmHg 53%
    09:00 +31°C° 0 mm 1 mps 754 mmHg 46%
    10:00 +32°C° 0 mm 1 mps 753 mmHg 42%
    11:00 +33°C° 0 mm 1 mps 753 mmHg 38%
    12:00 +34°C° 0 mm 1 mps 753 mmHg 34%
    13:00 +34°C° 0 mm 1 mps 753 mmHg 35%
    14:00 +34°C° 0 mm 1 mps 752 mmHg 35%
    15:00 +33°C° 0 mm 1 mps 752 mmHg 36%
    16:00 +32°C° 0 mm 1 mps 752 mmHg 40%
    17:00 +31°C° 0 mm 1 mps 752 mmHg 44%
    18:00 +29°C° 0 mm 1 mps 752 mmHg 48%
    19:00 +29°C° 0 mm 1 mps 752 mmHg 50%
    20:00 +28°C° 0 mm 1 mps 752 mmHg 52%
    21:00 +27°C° 0 mm 1 mps 753 mmHg 54%
    22:00 +27°C° 0 mm 1 mps 753 mmHg 54%
    23:00 +26°C° 0 mm 1 mps 753 mmHg 55%

    Day after tomorrow, 28 August, Wednesday

    Time Temperature Precipitation Wind Pressure Humidity
    00:00 +26°C° 0 mm 2 mps 753 mmHg 55%
    01:00 +26°C° 0 mm 2 mps 752 mmHg 57%
    02:00 +25°C° 0 mm 2 mps 752 mmHg 58%
    03:00 +24°C° 0 mm 2 mps 752 mmHg 59%
    04:00 +24°C° 0 mm 1 mps 752 mmHg 60%
    05:00 +24°C° 0 mm 1 mps 752 mmHg 60%
    06:00 +25°C° 0 mm 1 mps 752 mmHg 60%
    07:00 +27°C° 0 mm 1 mps 752 mmHg 54%
    08:00 +29°C° 0 mm 2 mps 752 mmHg 48%
    09:00 +31°C° 0 mm 2 mps 752 mmHg 41%
    10:00 +32°C° 0 mm 2 mps 752 mmHg 38%
    11:00 +34°C° 0 mm 2 mps 752 mmHg 34%
    12:00 +35°C° 0 mm 2 mps 752 mmHg 30%
    13:00 +35°C° 0 mm 2 mps 752 mmHg 30%
    14:00 +35°C° 0 mm 2 mps 752 mmHg 30%
    15:00 +35°C° 0 mm 2 mps 752 mmHg 31%
    16:00 +32°C° 0.1 mm 2 mps 751 mmHg 41%
    17:00 +30°C° 0.1 mm 2 mps 751 mmHg 50%
    18:00 +27°C° 0.1 mm 2 mps 751 mmHg 60%
    19:00 +26°C° 0.1 mm 2 mps 751 mmHg 63%
    20:00 +26°C° 0.1 mm 2 mps 752 mmHg 66%
    21:00 +25°C° 0.1 mm 2 mps 752 mmHg 69%
    22:00 +25°C° 0.1 mm 1 mps 752 mmHg 68%
    23:00 +25°C° 0.1 mm 1 mps 751 mmHg 68%

    29 August, Thursday

    Time Temperature Precipitation Wind Pressure Humidity
    00:00 +25°C° 0.1 mm 1 mps 751 mmHg 68%
    01:00 +24°C° 0.1 mm 2 mps 751 mmHg 70%
    02:00 +24°C° 0.1 mm 2 mps 751 mmHg 72%
    03:00 +23°C° 0.1 mm 2 mps 751 mmHg 74%
    04:00 +22°C° 0 mm 3 mps 751 mmHg 76%
    05:00 +22°C° 0 mm 3 mps 751 mmHg 77%
    06:00 +22°C° 0 mm 3 mps 752 mmHg 79%
    07:00 +22°C° 0 mm 4 mps 752 mmHg 76%
    08:00 +23°C° 0 mm 4 mps 753 mmHg 74%
    09:00 +25°C° 0 mm 4 mps 753 mmHg 71%
    10:00 +25°C° 0 mm 4 mps 753 mmHg 66%
    11:00 +26°C° 0 mm 4 mps 754 mmHg 61%
    12:00 +27°C° 0 mm 4 mps 754 mmHg 55%
    13:00 +27°C° 0 mm 4 mps 754 mmHg 53%
    14:00 +27°C° 0 mm 4 mps 754 mmHg 51%
    15:00 +27°C° 0 mm 5 mps 754 mmHg 49%
    16:00 +26°C° 0 mm 4 mps 755 mmHg 52%
    17:00 +23°C° 0 mm 4 mps 755 mmHg 55%
    18:00 +22°C° 0 mm 3 mps 756 mmHg 58%
    19:00 +20°C° 0 mm 3 mps 756 mmHg 66%
    20:00 +19°C° 0 mm 3 mps 757 mmHg 73%
    21:00 +18°C° 0 mm 3 mps 757 mmHg 80%
    22:00 +17°C° 0 mm 2 mps 758 mmHg 81%
    23:00 +16°C° 0 mm 2 mps 758 mmHg 83%

    30 August, Friday

    Time Temperature Precipitation Wind Pressure Humidity
    00:00 +16°C° 0 mm 1 mps 758 mmHg 84%
    01:00 +15°C° 0 mm 1 mps 758 mmHg 84%
    02:00 +15°C° 0 mm 1 mps 758 mmHg 83%
    03:00 +15°C° 0 mm 1 mps 758 mmHg 82%
    04:00 +14°C° 0 mm 0 mps 758 mmHg 81%
    05:00 +14°C° 0 mm 0 mps 759 mmHg 80%
    06:00 +15°C° 0 mm 0 mps 759 mmHg 78%
    07:00 +17°C° 0 mm 0 mps 759 mmHg 70%
    08:00 +19°C° 0 mm 0 mps 759 mmHg 62%
    09:00 +21°C° 0 mm 0 mps 759 mmHg 54%
    10:00 +22°C° 0 mm 0 mps 759 mmHg 49%
    11:00 +23°C° 0 mm 0 mps 758 mmHg 43%
    12:00 +27°C° 0 mm 1 mps 758 mmHg 38%
    13:00 +27°C° 0 mm 1 mps 758 mmHg 37%
    14:00 +27°C° 0 mm 1 mps 757 mmHg 35%
    15:00 +27°C° 0 mm 1 mps 757 mmHg 34%
    16:00 +25°C° 0 mm 1 mps 757 mmHg 39%
    17:00 +24°C° 0 mm 1 mps 756 mmHg 44%
    18:00 +22°C° 0 mm 1 mps 756 mmHg 49%
    19:00 +21°C° 0 mm 1 mps 756 mmHg 50%
    20:00 +20°C° 0 mm 1 mps 757 mmHg 52%
    21:00 +19°C° 0 mm 1 mps 757 mmHg 53%
    22:00 +19°C° 0 mm 1 mps 756 mmHg 55%
    23:00 +19°C° 0 mm 1 mps 756 mmHg 57%

    31 August, Saturday

    Time Temperature Precipitation Wind Pressure Humidity
    00:00 +16°C° 0 mm 0 mps 756 mmHg 59%
    01:00 +16°C° 0 mm 0 mps 756 mmHg 61%
    02:00 +16°C° 0 mm 0 mps 755 mmHg 63%
    03:00 +16°C° 0 mm 0 mps 755 mmHg 64%
    04:00 +16°C° 0 mm 0 mps 755 mmHg 64%
    05:00 +17°C° 0 mm 0 mps 755 mmHg 64%
    06:00 +17°C° 0 mm 0 mps 755 mmHg 63%
    07:00 +19°C° 0 mm 0 mps 755 mmHg 57%
    08:00 +21°C° 0 mm 0 mps 755 mmHg 51%
    09:00 +23°C° 0 mm 0 mps 755 mmHg 44%
    10:00 +26°C° 0 mm 1 mps 755 mmHg 43%
    11:00 +27°C° 0 mm 1 mps 755 mmHg 41%
    12:00 +27°C° 0 mm 2 mps 755 mmHg 40%
    13:00 +27°C° 0 mm 2 mps 754 mmHg 40%
    14:00 +27°C° 0 mm 2 mps 754 mmHg 39%
    15:00 +27°C° 0 mm 2 mps 754 mmHg 39%
    16:00 +26°C° 0 mm 2 mps 754 mmHg 44%
    17:00 +24°C° 0 mm 2 mps 754 mmHg 50%
    18:00 +23°C° 0 mm 2 mps 754 mmHg 55%
    19:00 +21°C° 0 mm 2 mps 755 mmHg 57%
    20:00 +21°C° 0 mm 1 mps 755 mmHg 60%
    21:00 +20°C° 0 mm 1 mps 755 mmHg 63%
    22:00 +19°C° 0 mm 1 mps 755 mmHg 64%
    23:00 +17°C° 0 mm 0 mps 755 mmHg 66%
    Show more